Location: Cortos
(40.7190°N, 4.5893°W)
Time: 19:43:53
(UTC+00:00)

FALCON 9 R/B - Pass Details

Date: 05 July 2020
Orbit: 295 x 10134 km, 34.5° (Epoch: 05 August)

Event Time Altitude Azimuth Distance (km) Brightness Sun altitude
Rises 20:32:32 0° 265° (W) 2,859 5.8 -7.0°
Reaches altitude 10° 20:35:54 10° 239° (WSW) 1,386 3.7 -7.5°
Maximum altitude 20:37:31 15° 201° (SSW) 999 2.5 -7.8°
Drops below altitude 10° 20:38:53 10° 162° (SSE) 1,147 2.5 -8.0°
Enters shadow 20:39:02 - 158° (SSE) 1,191 2.5 -8.0°
